STARLINK-32956, 63570

Orbit data source: Space-Track

STARLINK-32956, 63570 is a payload satellite owned by SpaceX/Seattle (US) in LEO that was launched on Mon, 14 Apr 2025 UTC via an FALCON 9 launch vehicle from the Air Force Eastern Test Range (AFETR). Payload-class satellites include a variety of spacecraft equipped with specific instruments for various scientific and technological missions. These include communications satellites like Starlink; space stations such as the ISS; scientific satellites like the Hubble; Earth observation satellites from companies like Planet Labs, Umbra, and HawkEye 360; GPS; miniature CubeSats for education and research; and military/defense satellites.

Loading next visibility...
Identifier
63570, 2025-076B
Orbit
LEO
Country
Flag of USUS
Related business
Manufacturer
SpaceX/Seattle
Mission
Operational Commercial Communications
Bus & Motor
STARLINK V2M, Unknown motor
Mass
730 kg wet, ~700 kg dry
Launch date (UTC)
2025-04-14 (8 months ago)
Launch vehicle
FALCON 9
Launch site
Air Force Eastern Test Range (AFETR)
Object type
Payload
Rocket body
Debris
Shape & HBR
Box + 2 Pan, 17.7 m
Radar Cross Section
33.884 m², Large (>1 m²)

Expand to show TLE details & history
Last TLE update: 16 hours ago

TLE from 16 hours ago
0 STARLINK-32956
1 63570U 25076B   25348.29225273  .00026476  00000-0  96803-3 0  9999
2 63570  42.9997  87.1858 0002388 279.7565  80.3017 15.27584541 38723
Epoch: 2025-12-14T07:00Z
TLE epoch observation values (Epoch: 2025-12-14T07:00:50.635Z)
Latitude
-0.00003°
Longitude
-101.23247°
Altitude
482.535 km
Speed
7.626 km/s
True Right ascension
05h 48m 44s
True Declination
0° 00' 00"
Sunlit
Object was in full shadow at epoch
Visualization orbit readout
Latitude
Unknown
Longitude
Unknown
Altitude
Unknown
Speed
Unknown
Apparent Right ascension
Unknown
Apparent Declination
Unknown
Sunlit
N/A
Visualization observer readout
Local Sidereal Time
21:22:05
Azimuth
Unknown
Elevation
Unknown
Doppler factor
Unknown
Orbital elements
Apogee altitude
486.62 km
Perigee altitude
483.342 km
Semi-major axis
6,863.118 km
Eccentricity
0.00024
Inclination
42.9997°
RAAN
87.1858°
Arg. of periapsis
279.7565°
True anomaly
80.32867°
Mean anomaly
80.3017°
Eccentric anomaly
80.31519°
Mean motion
3.81734 °/min
Orbital period
94.31 mins
BSTAR
0.00096803
Loading maneuver chart data...
Computing Atmospheric mass density...
Loading historical data...
Loading historical data...
Loading historical data...
Loading historical data...
Loading historical data...
Loading historical data...
Loading historical data...

Documentation

Showing up to 5 results
|